Simultaneous Nadir Overpasses (SNOs) Predictions

Prediction of SNOs between METOP-B and NOAA-19 Satellite Orbit:

Table of predicted SNOs for the next 14.0 days since TLE Epoch: 10/15/2017
Index Date (METOP-B) Time (METOP-B) Lat,Lon (METOP-B) SZA (METOP-B ) Date (NOAA-19) Time (NOAA-19) Lat,Lon (NOAA-19) SZA (NOAA-19 ) Distance(km) Time Diff (sec)
1 10/21/2017 23:11:36 77.64,-161.32 88.80 10/21/2017 23:10:30 77.66,-161.35 88.81 2.79 66
2 10/22/2017 00:02:17 -77.65, 6.08 91.18 10/22/2017 00:01:31 -77.64, 6.03 91.20 2.05 46
3 10/22/2017 00:52:58 77.62, 173.26 88.81 10/22/2017 00:52:31 77.65, 173.24 88.82 2.61 27
4 10/22/2017 01:43:39 -77.64, -19.35 91.17 10/22/2017 01:43:32 -77.62, -19.39 91.19 1.99 7
5 10/22/2017 02:34:20 77.61, 147.84 88.81 10/22/2017 02:34:32 77.63, 147.83 88.84 2.46 12
6 10/22/2017 03:25:01 -77.62, -44.77 91.17 10/22/2017 03:25:33 -77.60, -44.80 91.18 1.95 32
7 10/22/2017 04:15:42 77.59, 122.42 88.82 10/22/2017 04:16:33 77.61, 122.42 88.85 2.33 51
8 10/22/2017 05:06:23 -77.60, -70.19 91.16 10/22/2017 05:07:34 -77.59, -70.21 91.17 1.92 71




NCC Satellite Simultaneous Nadir Overpasses (SNOs) Prediction Service
